Welcome to the New NWS' Forecast!
Most changes are behind the scenes, but click here for differences you might notice.
Latest weather observations around

Texarkana, Texarkana Regional-Webb Field (KTXK)

Using English Units (Switch to International System of Units)
Date/ Time (CDT) Wind (mph) Vis. (mi) Weather Sky Cond. Temp (°F) Rel. Humidity Wind Chill (°F) Heat Index (°F) Pressure Precip. (in)
Air Dwpt 6 hour Altimeter (inHg) Sea level (inHg) 1 hr 3 hr 6 hr
Max Min
Sep 19 05:53 S 6 10 Mostly Clear FEW008 71 71     100%   73 29.94 29.93      
Sep 19 05:48 S 6 10 Mostly Clear FEW008 72 70     94%   73 29.94        
Sep 19 04:53 SW 6 10 Clear CLR 71 70     96%   72 29.93 29.91      
Sep 19 03:53 SSW 7 10 Clear CLR 72 70     93%   73 29.92 29.91      
Sep 19 02:53 SSW 6 10 Clear CLR 73 71     94%   74 29.93 29.91      
Sep 19 01:53 SSW 8 10 Clear CLR 74 71     91%   75 29.94 29.92      
Sep 19 00:53 SSW 5 10 Clear CLR 74 71     91%   75 29.95 29.93      
Sep 18 23:53 S 3 10 Clear CLR 75 71     88%   76 29.96 29.94      
Sep 18 22:53 SSW 5 10 Clear CLR 76 70     82%   77 29.96 29.94      
Sep 18 21:53 SE 5 10 Cloudy OVC060 79 68     69%   80 29.96 29.94      
Sep 18 20:53 Calm 10 Clear CLR 75 68     79%   76 29.94 29.93      
Sep 18 19:53 S 3 10 Clear CLR 79 68     69%   80 29.93 29.92      
Sep 18 18:53 SSW 3 10 Clear   85 67     55%   88 29.93 29.91      
Sep 18 17:53 SSW 6 10 Clear CLR 88 65     47%   90 29.93 29.91      
Sep 18 16:53 6 10 Clear CLR 89 66     47%   92 29.92 29.91      
Sep 18 15:53 Calm 10 Partly Cloudy SCT055 88 65     47%   90 29.94 29.92      
Sep 18 14:53 WNW 5 10 Mostly Cloudy BKN055 89 65     45%   91 29.97 29.95      
Sep 18 13:53 6 10 Clear CLR 88 65     47%   90 30 29.98      
Sep 18 12:53 NW 11 10 Partly Cloudy FEW039 SCT050 SCT065 87 69     55%   91 30.04 30.02     0
Sep 18 11:53 NW 9 10 Partly Cloudy FEW032 SCT043 84 71     65%   89 30.06 30.04      
Sep 18 10:53 W 6 10 Mostly Cloudy BKN040 83 71     67%   88 30.06 30.04      
Sep 18 09:53 Calm 10 Clear CLR 81 70     69%   84 30.04 30.03   0  
Sep 18 08:53 Calm 10 Partly Cloudy SCT050 77 72     84%   78 30.04 30.03      
Sep 18 07:53 Calm 7 Cloudy OVC038 74 73     97%   76 30.03 30.02 0    
Sep 18 03:53 SW 6 10 Clear CLR 74 70     87%   75 29.99 29.97      
Sep 18 02:53 S 8 10 Clear CLR 75 70     84%   76 29.98 29.97      
Sep 18 01:53 S 6 10 Clear CLR 76 70     82%   77 29.99 29.97      
Sep 18 00:53 Calm 10 Clear CLR 75 71     88%   76 30.01 29.99      
Sep 17 23:53 Calm 10 Mostly Cloudy BKN055 74 71     91%   75 30.02 30.01      
Sep 17 22:53 E 3 10 Clear CLR 73 71     94%   74 30.03 30.01      
Sep 17 21:53 SE 3 10 Clear CLR 76 70     82%   77 30.03 30.02      
Sep 17 20:53 Calm 10 Clear CLR 76 70     82%   77 30.02 30.01      
Sep 17 19:53 ENE 3 10 Clear CLR 77 69     77%   78 30.02 30      
Sep 17 18:53 Calm 10 Clear CLR 84 69     61%   88 30.01 30      
Sep 17 17:53 ENE 3 10 Clear CLR 88 66     48%   90 30 29.98      
Sep 17 16:53 SSE 6 10 Clear CLR 88 66     48%   90 29.99 29.97      
Sep 17 15:53   10 Mostly Clear FEW050 88 67     50%   91 30.01 29.99      
Sep 17 14:53 S 6 10 Clear CLR 88 66     48%   90 30.04 30.02      
Sep 17 13:53 Calm 10 Clear CLR 86 65     50%   88 30.06 30.05      
Sep 17 12:53 S 6 10 Clear CLR 87 65     48%   89 30.08 30.06 0   0
Sep 17 11:53 S 6 10 Mostly Clear FEW037 85 66     53%   87 30.08 30.06      
Sep 17 10:53 5 10 Clear CLR 84 68     59%   87 30.08 30.07      
Sep 17 09:53 3 10 Clear CLR 80 69     69%   83 30.09 30.07      
Sep 17 08:53 Calm 10 Clear CLR 76 68     76%   77 30.08 30.06      
Sep 17 07:53 Calm 7 Clear CLR 68 68     100%     30.06 30.05      
Sep 17 06:53 Calm 10 Clear CLR 67 66     97%     30.06 30.04      
Sep 17 05:53 Calm 8 Clear CLR 67 66     97%     30.04 30.03      
Sep 17 03:53 SSE 3 10 Clear CLR 70 68     93%     30.01 30      
Sep 17 02:53 SE 5 10 Clear CLR 70 68     93%     30.01 30      
Sep 17 01:53 ESE 3 10 Clear CLR 71 68     90%   72 30.02 30      
Sep 17 00:53 Calm 10 Clear CLR 70 68     93%     30.02 30.01      
Sep 16 23:53 S 6 10 Clear CLR 76 69     79%   77 30.02 30      
Sep 16 22:53 SSE 6 10 Clear CLR 75 69     82%   76 30.02 30      
Sep 16 21:53 SE 6 10 Clear CLR 77 70     79%   78 30.01 29.99      
Sep 16 20:53 SE 5 10 Clear CLR 78 70     76%   79 29.99 29.97      
Sep 16 19:53 ESE 5 10 Mostly Clear FEW060 81 69     67%   84 29.97 29.95      
Sep 16 18:53 Calm 10 Clear CLR 83 71     67%   88 29.95 29.93     0
Sep 16 17:53 S 5 10 Clear CLR 89 66     47%   92 29.95 29.94      
Sep 16 16:53 3 10 Clear CLR 89 65     45%   91 29.96 29.95      
Sep 16 15:53 S 3 10 Clear CLR 90 65     44%   92 29.97 29.95   0  
Sep 16 14:53 SSW 6 10 Mostly Clear FEW050 89 66     47%   92 29.98 29.97 0    
Sep 16 13:53 WSW 3 10 Light Rain CLR 88 66     48%   90 30 29.99 0    
Sep 16 12:53 3 10 Clear CLR 87 68     53%   91 30.02 30.01      
Sep 16 11:53 SW 8 10 Clear CLR 86 68     55%   89 30.05 30.03      
Sep 16 10:53 S 6 10 Clear CLR 83 69     63%   87 30.05 30.04      
Sep 16 09:53 SSE 3 10 Clear CLR 79 71     77%   82 30.05 30.04      
Sep 16 08:53 Calm 9 Clear CLR 73 69     87%   74 30.04 30.02      
Sep 16 07:53 Calm 5 Fog/Mist CLR 68 67     96%     30.03 30.01      
Sep 16 06:53 E 5 5 Fog/Mist CLR 66 66     100%     30.01 30      
Sep 16 05:53 Calm 6 Fog/Mist CLR 64 64     100%     29.99 29.98      
Sep 16 04:53 Calm 8 Clear CLR 66 66     100%     29.98 29.96      
Sep 16 03:53 Calm 9 Clear CLR 67 66     97%     29.97 29.95      
Jun 12 06:28 SE 5 8 Cloudy SCT008 OVC028 74 74     100%   76 29.98        
Jun 11 20:53 SSE 8 10 Mostly Cloudy FEW043 BKN060 79 73     82%   82 29.96 29.94      
Jun 11 10:53 S 9 10 Clear CLR 82 67     60%   85 30.01 29.99      
Jun 11 03:53 S 8 10 Clear CLR 72 69     91%   73 29.96 29.94      
Jun 10 20:53 SE 5 10 Clear CLR 75 65     71%   76 29.91 29.9      
Jun 10 18:53 SSE 9 10 Clear CLR 82 62     51%   83 29.91 29.89      
Jun 10 14:53 S 11 10 Mostly Clear FEW048 83 64     53%   84 29.95 29.93      
Jun 09 18:53 ESE 3 10 Mostly Clear FEW055 79 61     54%   79 29.89 29.87      
Jun 06 06:15 NNE 5 10 Partly Cloudy FEW008 SCT023 69 69     100%     29.81        
Jun 06 02:32 NNE 3 10 Cloudy SCT010 OVC016 70 70     100%     29.8        
Jun 05 20:22 ENE 6 10 Mostly Cloudy SCT016 BKN022 BKN030 74 72     94%   75 29.76        
Jun 05 17:53 N 10 10 Mostly Clear FEW036 82 70     67%   86 29.72 29.71